Lid_Strength_Index
3 6 8 9 13 15 16 13 11 11 10 8 5 7 7 6 8 11 2 1 1 1 -0 -0 -1 -1 -1 -1 -1 -1 -1 -1 -1 -1 -1 -1 -1 -1 -1 -1 -1 -1 -1 -1 -1 -1 -1 -1 -1
5 6 9 12 15 17 15 11 11 10 8 8 6 6 7 8 4 4 4 1 0 0 -0 -0 -1 -1 -1 -1 -1 -1 -1 -1 -1 -1 -1 -1 -1 -1 -1 -1 -1 -1 -1 -1 -1 -1 -1 -1 -1
2 4 10 14 17 17 15 11 10 9 7 8 6 5 6 7 4 4 2 1 0 0 -0 -0 -1 -1 -1 -1 -1 -1 -1 -1 -1 -1 -1 -1 -1 -1 -1 -1 -1 -1 -1 -1 -1 -1 -1 -1 -1
7 9 10 15 18 15 13 11 10 10 8 8 5 7 5 3 3 2 1 1 1 0 -0 -0 -0 -1 -1 -1 -1 -1 -1 -1 -1 -1 -1 -1 -1 -1 -1 -1 -1 -1 -1 -1 -1 -1 -1 -1 -1
8 12 15 18 17 15 12 11 10 10 10 9 7 7 7 3 2 1 1 1 1 1 0 -0 -0 -1 -1 -1 -1 -1 -1 -1 -1 -1 -1 -1 -1 -1 -1 -1 -1 -1 -1 -1 -1 -1 -1 -2 -2
11 12 18 16 16 13 12 11 12 12 11 10 6 7 7 3 3 2 1 1 1 1 0 -0 -1 -1 -1 -1 -1 -1 -1 -1 -1 -1 -1 -1 -1 -1 -1 -1 -1 -1 -1 -1 -1 -1 -1 -1 -1
12 14 17 17 15 13 12 11 12 13 12 11 6 8 6 4 2 1 2 1 1 0 0 0 -0 -0 -1 -1 -1 -1 -1 -1 -1 -1 -1 -1 -1 -1 -1 -1 -1 -1 -1 -1 -1 -1 -1 -1 -1
10 12 14 15 14 14 11 11 11 12 11 8 7 8 8 4 2 2 1 1 1 1 0 0 0 -0 -0 -0 -1 -1 -1 -1 -1 -1 -1 -1 -1 -1 -1 -1 -1 -1 -1 -1 -1 -1 -1 -1 -1
8 13 14 13 13 13 11 12 8 7 10 9 5 5 4 2 2 2 3 2 2 1 1 0 0 0 -0 -0 -0 -1 -1 -1 -1 -1 -1 -0 0 0 -0 -1 -1 -1 -1 -1 -1 -1 -1 -1 -2
11 12 12 11 10 12 9 10 9 8 9 7 6 4 3 3 3 4 4 4 3 2 2 1 0 0 1 -0 -0 0 -0 -0 0 0 0 0 1 1 -0 -1 -1 -2 -2 -2 -2 -2 -2 -1 0
12 12 9 9 8 9 9 9 8 8 9 8 7 6 4 4 4 4 4 3 3 2 1 1 1 1 0 0 0 -0 -0 0 0 0 0 1 0 0 0 1 0 0 -1 0 -0 0 0 0 0
13 11 8 8 7 8 8 7 8 9 8 7 5 4 4 4 4 4 4 3 3 2 2 1 1 0 1 0 0 0 0 0 0 0 0 0 1 0 0 0 0 0 0 0 0 0 0 0 0
11 11 11 9 8 7 7 8 8 8 6 7 5 4 4 4 4 3 3 3 3 3 2 1 1 2 1 1 1 1 1 0 1 0 0 1 1 1 1 1 1 0 0 1 1 1 1 1 1
10 10 10 10 11 9 8 8 8 7 7 7 9 6 5 5 4 4 4 4 3 3 3 2 2 2 2 2 2 2 2 1 1 0 0 0 0 1 1 2 0 1 1 1 1 1 1 1 1
8 10 9 10 10 10 9 10 9 6 7 8 7 10 8 5 5 5 4 4 3 3 3 4 2 1 2 2 2 1 0 0 0 0 0 0 0 1 1 1 1 1 2 2 2 1 2 2 2
12 11 13 10 10 9 9 13 8 7 8 8 8 8 9 10 5 6 3 3 2 3 3 2 1 1 1 2 1 1 0 1 1 1 1 -0 -0 0 1 1 1 0 1 2 2 2 2 2 2
12 14 14 12 9 10 10 12 8 8 9 9 9 8 9 11 11 9 3 3 2 2 2 2 1 1 1 1 0 0 0 1 0 1 1 1 0 0 1 1 1 1 1 1 1 2 1 2 2
14 14 12 12 10 10 11 11 9 8 9 9 9 9 8 9 11 10 3 2 2 2 2 2 1 1 1 1 1 1 0 0 0 0 1 0 -0 -0 1 1 1 1 2 2 1 2 1 2 2
11 12 12 10 9 11 11 11 10 9 10 10 10 9 9 8 8 8 3 3 2 3 3 2 2 2 2 2 2 2 2 1 1 0 0 -0 0 0 1 1 1 1 1 2 2 1 2 3 2
10 12 13 10 8 10 11 12 9 10 10 10 10 9 9 9 8 7 4 3 3 3 3 2 2 2 3 3 2 2 2 2 1 1 0 0 0 0 1 1 1 1 1 2 2 2 2 2 2
11 12 13 12 9 9 11 12 11 9 8 9 9 8 8 8 8 8 5 4 3 3 3 2 2 2 1 1 1 2 2 2 2 2 1 1 0 0 1 1 2 2 2 3 3 3 3 3 2
13 9 10 11 12 15 10 16 13 10 10 10 10 10 9 9 8 8 5 4 4 3 4 3 2 2 3 3 2 2 3 3 2 2 2 2 1 1 2 2 3 3 4 4 4 2 2 2 3
11 9 11 12 12 13 12 15 12 11 11 10 11 10 9 8 8 7 5 4 3 3 3 2 2 4 5 4 4 2 2 3 1 2 3 3 3 2 3 4 5 5 5 5 5 3 3 2 3
8 10 12 12 13 17 13 14 15 13 11 11 10 10 9 9 8 5 4 3 3 2 2 3 2 3 3 1 1 1 2 3 2 3 4 4 4 4 5 6 6 5 5 4 4 3 3 4 4
10 12 19 20 19 21 13 14 14 11 9 10 10 10 9 8 9 6 5 5 4 4 4 2 2 2 2 1 2 1 1 2 2 3 4 5 5 6 6 6 5 5 4 4 4 3 4 4 4
11 13 19 23 22 20 13 17 13 10 8 9 9 9 9 9 6 6 5 4 4 4 5 3 3 4 4 3 4 4 3 4 3 4 4 5 6 6 5 5 5 4 4 4 4 4 3 4 4
12 15 12 17 15 18 16 13 10 9 10 9 10 9 9 9 6 6 5 4 4 5 3 4 5 5 5 5 5 5 5 6 5 5 5 6 6 5 5 5 5 5 3 4 4 4 4 4 4
11 10 16 16 22 21 17 16 15 11 11 10 11 10 8 7 6 6 5 4 4 4 4 4 5 6 6 5 6 5 6 5 5 6 7 7 7 6 6 6 5 4 4 4 4 5 5 4 4
13 14 13 13 16 19 21 17 12 12 10 11 10 9 8 7 6 6 5 5 5 5 6 7 7 6 6 6 6 5 6 6 6 7 8 8 7 6 5 5 4 4 5 6 6 6 5 5 5
10 12 12 18 18 16 17 19 10 10 9 9 9 8 7 6 6 5 5 6 7 7 7 7 7 6 5 5 6 7 7 8 8 8 8 7 6 5 5 5 5 5 6 7 6 6 6 5 5